Terminal Aerodrome Forecast
Issued by NWS

Home | Current Version | Previous Version | Text Only | Print | Product List | Glossary On
Versions: 1 2 3 4 5 6 7 8 9 10 11 12 13 14 15 16 17 18 19 20 21 22 23 24 25 26 27 28 29 30
000
FTUS45 KBOI 310352 AAA
TAFJER
TAF AMD
KJER 310352Z 3104/3124 25012KT P6SM VCSH SCT120
     FM310430 29030G42KT P6SM -SHRA BKN100
     FM310600 26018KT P6SM VCSH SCT070 BKN100
     FM310900 23010KT P6SM SCT080
     FM311600 24015G25KT P6SM SCT180=

USA.gov is the U.S. government's official web portal to all federal, state and local government web resources and services.